Location: Pasadena, ca
(34.1243°N, 118.1037°W)
Time: 08:58:05
(UTC-07:00)

Envisat - Visible Passes

Search period start: 24 September 2017 00:00
Search period end: 04 October 2017 00:00
Orbit: 764 x 766 km, 98.2° (Epoch: 24 September)

Date Brightness Start Highest point End Pass type
(mag) Time Alt. Az. Time Alt. Az. Time Alt. Az.
24 Sep 4.4 19:38:12 15° E 19:39:47 18° ENE 19:43:04 10° NNE visible
24 Sep 3.9 21:18:25 46° W 21:18:25 46° W 21:23:15 10° NNW visible
25 Sep 2.8 20:41:26 73° E 20:41:40 74° ENE 20:46:44 10° N visible
26 Sep 3.7 20:04:28 30° E 20:05:08 31° ENE 20:09:34 10° N visible
26 Sep 5.0 21:44:41 24° W 21:44:41 24° W 21:48:14 10° NW visible
27 Sep 4.7 19:27:30 13° E 19:28:48 14° ENE 19:31:18 10° NE visible
27 Sep 3.5 21:07:42 57° WNW 21:07:42 57° WNW 21:12:17 10° NNW visible
28 Sep 3.0 20:30:44 57° ENE 20:30:44 57° ENE 20:35:35 10° N visible
28 Sep 5.8 22:10:57 12° W 22:10:57 12° W 22:12:14 10° WNW visible
29 Sep 4.0 19:53:45 24° ENE 19:54:08 25° ENE 19:58:11 10° NNE visible
29 Sep 4.7 21:33:58 29° WNW 21:33:58 29° WNW 21:37:28 10° NW visible
30 Sep 4.9 19:16:53 10° ENE 19:17:51 11° ENE 19:18:49 10° NE visible
30 Sep 3.3 20:57:00 61° NW 20:57:00 61° NW 21:01:15 10° NNW visible
01 Oct 3.4 20:20:01 43° ENE 20:20:01 43° ENE 20:24:21 10° N visible
01 Oct 5.6 22:00:14 15° WNW 22:00:14 15° WNW 22:02:00 10° NW visible
02 Oct 4.3 19:43:03 19° ENE 19:43:08 19° ENE 19:46:41 10° NNE visible
02 Oct 4.5 21:23:16 33° WNW 21:23:16 33° WNW 21:26:35 10° NNW visible
03 Oct 3.4 20:46:18 53° N 20:46:18 53° N 20:50:09 10° N visible
